Tracking 31027 objects as of 19-Jul-2025
HD Live streaming from Space Station
objects crossing your sky now

FALCON 9 R/B

Track FALCON 9 R/B now!


NORAD ID: 42433
Int'l Code: 2017-017B
Perigee: 242.7 km
Apogee: 27,903.8 km
Inclination: 25.9 °
Period: 484.9 minutes
Semi major axis: 20444 km
RCS: Unknown
Launch date: March 30, 2017
Source: United States (US)
Launch site: AIR FORCE EASTERN TEST RANGE (AFETR)

Note: This is a ROCKET BODY
Your satellite tracking list
COSMOS 2251 DEB
Track 1 satellite(s)




NASA's NSSDC Master Catalog

Two Line Element Set (TLE):
1 42433U 17017B   25199.61726214  .00005568  00000-0  74221-3 0  9990
2 42433  25.9279  68.6875 6765026 324.2279   5.4065  2.96993514 80133
Source of the keplerian elements: AFSPC